Nashville, TN

5:33 PM CDT on May 25, 2017 (GMT -0500)
Nashville International

Weather History for KBNA - September, 2013

Change the Weather History Date:

Monday, September 30, 2013

  Actual Average Record
Temperature  
Mean Temperature 69 °F 66 °F  
Max Temperature 78 °F 77 °F 93 °F (1953)
Min Temperature 60 °F 55 °F 36 °F (1949)
Degree Days  
Heating Degree Days 0    
Month to date heating degree days 2  
Since 1 July heating degree days 2  
Cooling Degree Days 4    
Month to date cooling degree days 253  
Year to date cooling degree days 1644  
Growing Degree Days 18 (Base 50)    
Moisture  
Dew Point 58 °F    
Average Humidity 73    
Maximum Humidity 97    
Minimum Humidity 48    
Precipitation  
Precipitation 0.00 in 0.12 in 2.71 in (1915)
Month to date precipitation 4.52 3.41  
Year to date precipitation 42.03 35.66  
Snow  
Snow 0.00 in - 0.00 in (2002)
Month to date snowfall 0.0  
Since 1 July snowfall 0.0  
Since 1 September snowfall 0.0  
Snow Depth 0.00 in    
Sea Level Pressure  
Sea Level Pressure 30.02 in    
Wind  
Wind Speed 5 mph (South)    
Max Wind Speed 17 mph    
Max Gust Speed 24 mph    
Visibility 10 miles    
Events      
T = Trace of Precipitation, MM = Missing Value Source: NWS Daily Summary

Daily Weather History Graph

Daily Weather History Graph

Search for Another Location

Airport or City:

Trip Planner

Search our weather history database for the weather conditions in past years. The results will help you decide how hot, cold, wet, or windy it might be!

Date:

Astronomy

Sep. 30, 2013 Rise Set
Actual Time 6:41 AM CDT 6:31 PM CDT
Civil Twilight 6:15 AM CDT 6:56 PM CDT
Nautical Twilight 5:45 AM CDT 7:26 PM CDT
Astronomical Twilight 5:15 AM CDT 7:56 PM CDT
Moon 2:24 AM CDT (9/30) 3:55 PM CDT (9/30)
Length of Visible Light 12h 41m
Length of Day
11h 50m
Waning Crescent, 19% of the Moon is Illuminated
Sep 30
Waning Crescent
Oct 4
New
Oct 11
First Quarter
Oct 18
Full
Oct 26
Last Quarter

Hourly Weather History & Observations

Time (CDT) Temp. Dew Point Humidity Pressure Visibility Wind Dir Wind Speed Gust Speed Precip Events Conditions
12:53 AM 60.1 °F 57.9 °F 93% 30.01 in 9.0 mi SSE 4.6 mph - N/A   Mostly Cloudy
1:53 AM 61.0 °F 59.0 °F 93% 30.01 in 8.0 mi South 3.5 mph - N/A   Overcast
2:53 AM 61.0 °F 59.0 °F 93% 30.00 in 10.0 mi Calm Calm - N/A   Overcast
3:53 AM 62.1 °F 59.0 °F 90% 30.01 in 10.0 mi SE 3.5 mph - N/A   Overcast
4:53 AM 62.1 °F 59.0 °F 90% 30.01 in 10.0 mi South 3.5 mph - N/A   Overcast
5:53 AM 62.1 °F 59.0 °F 90% 30.01 in 10.0 mi Calm Calm - N/A   Overcast
6:53 AM 63.0 °F 57.9 °F 84% 30.03 in 10.0 mi ESE 3.5 mph - N/A   Overcast
7:53 AM 64.0 °F 59.0 °F 84% 30.05 in 10.0 mi SSE 3.5 mph - N/A   Mostly Cloudy
8:53 AM 66.9 °F 59.0 °F 76% 30.05 in 10.0 mi South 9.2 mph - N/A   Mostly Cloudy
9:53 AM 71.1 °F 57.9 °F 63% 30.05 in 10.0 mi South 12.7 mph - N/A   Scattered Clouds
10:53 AM 73.0 °F 57.0 °F 57% 30.05 in 10.0 mi SSW 10.4 mph - N/A   Scattered Clouds
11:53 AM 75.0 °F 57.9 °F 55% 30.03 in 10.0 mi South 10.4 mph 18.4 mph N/A   Scattered Clouds
12:53 PM 75.0 °F 57.0 °F 53% 30.02 in 10.0 mi SSW 8.1 mph 17.3 mph N/A   Scattered Clouds
1:53 PM 77.0 °F 57.0 °F 50% 30.00 in 10.0 mi South 13.8 mph 17.3 mph N/A   Scattered Clouds
2:53 PM 78.1 °F 57.0 °F 48% 29.98 in 10.0 mi SW 8.1 mph 24.2 mph N/A   Scattered Clouds
3:53 PM 77.0 °F 57.0 °F 50% 29.98 in 10.0 mi South 5.8 mph - N/A   Scattered Clouds
4:53 PM 75.9 °F 57.9 °F 54% 29.98 in 10.0 mi SW 4.6 mph - N/A   Mostly Cloudy
5:53 PM 73.0 °F 59.0 °F 61% 29.98 in 10.0 mi Calm Calm - N/A   Mostly Cloudy
6:53 PM 72.0 °F 59.0 °F 64% 30.00 in 10.0 mi SSW 3.5 mph - N/A   Mostly Cloudy
7:53 PM 72.0 °F 57.9 °F 61% 30.01 in 10.0 mi SSW 6.9 mph - N/A   Mostly Cloudy
8:53 PM 70.0 °F 59.0 °F 68% 30.03 in 10.0 mi South 3.5 mph - N/A   Overcast
9:53 PM 66.0 °F 59.0 °F 78% 30.03 in 10.0 mi South 5.8 mph - N/A   Mostly Cloudy
10:53 PM 66.0 °F 57.9 °F 75% 30.02 in 10.0 mi Calm Calm - N/A   Mostly Cloudy
11:53 PM 66.0 °F 59.0 °F 78% 30.02 in 10.0 mi Calm Calm - N/A   Overcast